sat.trackr.live / text

‹ back to catalog

STARLINK-4700

NORAD 53722 · 2022-107Y

PAYLOAD ACTIVE UNKNOWN

§ Identity

Operator
Country
US
Launch date
2022-09-05
Launch site
AFETR
Launch vehicle
Mass (kg)
RCS (m²)

Purposes: comms

External: N2YO · Heavens-Above · Gunter

§ Orbital elements

Epoch: 2026-09-20T21:02:14.206848Z

Period
93.85 min
Inclination
53.1602°
Eccentricity
0.0001300
Mean motion
15.34390208 rev/d
Perigee alt
461.8 km
Apogee alt
463.6 km
Semi-major
6,840.9 km
B*
2.2556e-5
RAAN
83.6554°
Arg perigee
92.0031°
Mean anomaly
268.1121°
Rev number
22,406

§ Raw data

STARLINK-47001 53722U 22107Y   26263.87655332  .00000386  00000+0  22556-4 0  99992 53722  53.1602  83.6554 0001300  92.0031 268.1121 15.34390208224068

JSON: /api/v1/satellites/53722 · /tle

For live sub-satellite position, see the globe view (requires WebGL).

§ Visibility from observer

Set your observer location to see the next 7 days of passes ≥ 10°. The values pass through the URL so the page stays shareable.

No JS? Fill the form by hand. The geolocation button needs JavaScript.